Location: Columbia
(38.9520°N, 92.3340°W)
Time: 08:43:03
(UTC-05:00)

SL-08 RB Rocket - Visible Passes

Search period start: 29 March 2015 00:00
Search period end: 08 April 2015 00:00
Orbit: 649 x 687 km, 98.1° (Epoch: 28 March)

Date Brightness Start Highest point End Pass type
(mag) Time Alt. Az. Time Alt. Az. Time Alt. Az.
29 Mar 6.0 21:50:58 13° NNE 21:50:58 13° NNE 21:51:41 10° NNE visible
29 Mar 6.8 23:29:07 11° NNW 23:29:07 11° NNW 23:29:15 10° NNW visible
30 Mar 6.0 22:23:21 17° N 22:23:21 17° N 22:24:29 10° N visible
31 Mar 6.2 22:55:43 17° NNW 22:55:43 17° NNW 22:56:46 10° NNW visible
01 Apr 5.9 21:49:56 14° NNE 21:49:56 14° NNE 21:50:57 10° NNE visible
01 Apr 6.7 23:28:06 12° NW 23:28:06 12° NW 23:28:33 10° NNW visible
02 Apr 5.8 22:22:18 20° N 22:22:18 20° N 22:23:46 10° N visible
03 Apr 6.0 22:54:40 20° NNW 22:54:40 20° NNW 22:56:02 10° NNW visible
04 Apr 5.8 21:48:53 15° NNE 21:48:53 15° NNE 21:50:12 10° NNE visible
04 Apr 6.5 23:27:03 14° NW 23:27:03 14° NW 23:27:50 10° NNW visible
05 Apr 5.6 22:21:15 22° NNE 22:21:15 22° NNE 22:23:02 10° N visible
06 Apr 5.8 22:53:37 23° NNW 22:53:37 23° NNW 22:55:18 10° NNW visible
07 Apr 5.7 21:47:50 17° NE 21:47:50 17° NE 21:49:26 10° NNE visible
07 Apr 6.4 23:25:59 17° NW 23:25:59 17° NW 23:27:07 10° NNW visible
